Location: Latta
(44.3000°N, 77.3397°W)
Time: 21:11:42
(UTC+00:00)

Envisat - Visible Passes

Search period start: 04 December 2022 00:00
Search period end: 14 December 2022 00:00
Orbit: 763 x 765 km, 98.2° (Epoch: 04 December)

Date Brightness Start Highest point End Pass type
(mag) Time Alt. Az. Time Alt. Az. Time Alt. Az.
04 Dec 4.9 10:25:29 10° N 10:26:29 15° NNW 10:26:29 15° NNW visible
05 Dec 5.1 09:48:04 10° N 09:48:54 15° N 09:48:54 15° N visible
06 Dec 5.6 09:11:05 10° NNE 09:11:19 11° NNE 09:11:19 11° NNE visible
06 Dec 5.1 10:51:09 10° NNW 10:51:29 11° NNW 10:51:29 11° NNW visible
06 Dec 6.3 22:10:30 10° W 22:11:45 11° W 22:13:00 10° WNW visible
07 Dec 5.1 10:13:20 10° N 10:13:55 13° N 10:13:55 13° N visible
08 Dec 5.4 09:36:04 10° N 09:36:21 12° N 09:36:21 12° N visible
09 Dec 5.2 10:38:51 10° NNW 10:38:58 11° NNW 10:38:58 11° NNW visible
09 Dec 5.9 21:56:57 10° WSW 21:59:38 14° W 22:02:19 10° WNW visible
10 Dec 5.4 10:01:15 10° N 10:01:25 11° N 10:01:25 11° N visible
